TimeCDT,TemperatureF,Dew PointF,Humidity,Sea Level PressureIn,VisibilityMPH,Wind Direction,Wind SpeedMPH,Gust SpeedMPH,PrecipitationIn,Events,Conditions,WindDirDegrees,DateUTC
12:15 AM,33.3,26.6,77,30.35,10.0,NNW,5.8,-,N/A,,Clear,340,2013-03-27 05:15:00
12:35 AM,33.4,26.4,75,30.35,10.0,NNW,4.6,-,N/A,,Clear,340,2013-03-27 05:35:00
12:55 AM,32.2,26.6,80,30.35,10.0,NNW,3.5,-,N/A,,Clear,330,2013-03-27 05:55:00
1:15 AM,33.1,26.4,77,30.36,10.0,NW,3.5,-,N/A,,Clear,320,2013-03-27 06:15:00
1:35 AM,32.4,25.7,76,30.35,10.0,NW,3.5,-,N/A,,Clear,310,2013-03-27 06:35:00
1:55 AM,31.8,26.6,81,30.35,10.0,WNW,3.5,-,N/A,,Clear,300,2013-03-27 06:55:00
2:15 AM,31.8,26.2,80,30.36,10.0,WNW,4.6,-,N/A,,Clear,290,2013-03-27 07:15:00
2:35 AM,31.1,26.4,83,30.35,10.0,WNW,3.5,-,N/A,,Clear,290,2013-03-27 07:35:00
2:55 AM,30.2,26.2,85,30.35,10.0,West,3.5,-,N/A,,Clear,280,2013-03-27 07:55:00
3:15 AM,30.2,25.7,83,30.34,10.0,Calm,Calm,-,N/A,,Clear,0,2013-03-27 08:15:00
3:35 AM,29.8,25.2,83,30.34,10.0,Calm,Calm,-,N/A,,Clear,0,2013-03-27 08:35:00
3:55 AM,29.1,26.2,89,30.35,10.0,West,4.6,-,N/A,,Clear,270,2013-03-27 08:55:00
4:15 AM,29.3,26.2,88,30.36,10.0,West,4.6,-,N/A,,Clear,270,2013-03-27 09:15:00
4:35 AM,28.9,26.4,90,30.35,10.0,West,5.8,-,N/A,,Clear,270,2013-03-27 09:35:00
4:55 AM,29.5,26.8,90,30.36,10.0,West,5.8,-,N/A,,Clear,270,2013-03-27 09:55:00
5:15 AM,29.7,27.1,90,30.36,10.0,West,6.9,-,N/A,,Clear,260,2013-03-27 10:15:00
5:35 AM,28.9,26.6,91,30.36,10.0,West,4.6,-,N/A,,Clear,270,2013-03-27 10:35:00
5:55 AM,29.3,27.3,92,30.36,10.0,West,4.6,-,N/A,,Clear,260,2013-03-27 10:55:00
6:15 AM,29.8,27.5,91,30.36,10.0,West,6.9,-,N/A,,Clear,270,2013-03-27 11:15:00
6:35 AM,28.4,26.1,91,30.37,10.0,West,4.6,-,N/A,,Clear,260,2013-03-27 11:35:00
6:55 AM,29.3,26.6,90,30.38,10.0,West,5.8,-,N/A,,Clear,270,2013-03-27 11:55:00
7:15 AM,30.0,27.3,90,30.38,10.0,West,6.9,-,N/A,,Clear,270,2013-03-27 12:15:00
7:35 AM,31.1,28.0,88,30.39,10.0,West,5.8,-,N/A,,Clear,270,2013-03-27 12:35:00
7:55 AM,32.0,28.4,87,30.39,10.0,West,5.8,-,N/A,,Clear,270,2013-03-27 12:55:00
8:15 AM,32.9,29.7,88,30.40,10.0,West,5.8,-,N/A,,Clear,280,2013-03-27 13:15:00
8:35 AM,34.7,29.7,82,30.40,10.0,West,5.8,-,N/A,,Clear,280,2013-03-27 13:35:00
8:55 AM,36.7,30.2,77,30.40,10.0,West,3.5,-,N/A,,Clear,280,2013-03-27 13:55:00
9:15 AM,38.5,28.0,66,30.40,10.0,NW,3.5,-,N/A,,Clear,320,2013-03-27 14:15:00
9:35 AM,39.7,26.8,60,30.40,10.0,WNW,5.8,-,N/A,,Clear,290,2013-03-27 14:35:00
9:55 AM,41.0,25.9,55,30.40,10.0,North,6.9,-,N/A,,Clear,360,2013-03-27 14:55:00
10:15 AM,41.0,23.5,50,30.41,10.0,Calm,Calm,-,N/A,,Scattered Clouds,0,2013-03-27 15:15:00
10:35 AM,41.9,25.3,52,30.41,10.0,North,6.9,-,N/A,,Scattered Clouds,360,2013-03-27 15:35:00
10:55 AM,42.3,25.2,51,30.41,10.0,NE,6.9,-,N/A,,Clear,40,2013-03-27 15:55:00
11:15 AM,42.8,26.2,52,30.40,10.0,NE,3.5,-,N/A,,Clear,50,2013-03-27 16:15:00
11:35 AM,43.3,26.6,52,30.40,10.0,NNW,3.5,-,N/A,,Scattered Clouds,330,2013-03-27 16:35:00
11:55 AM,44.1,28.0,53,30.40,10.0,West,5.8,-,N/A,,Scattered Clouds,260,2013-03-27 16:55:00
12:15 PM,44.8,28.4,53,30.40,10.0,SW,5.8,-,N/A,,Scattered Clouds,230,2013-03-27 17:15:00
12:35 PM,44.8,28.0,52,30.39,10.0,West,8.1,16.1,N/A,,Clear,260,2013-03-27 17:35:00
12:55 PM,-9999,-9999,N/A,-9999,-9999.0,North,-9999.0,-,N/A,,Unknown,0,2013-03-27 17:55:00
1:15 PM,-9999,-9999,N/A,-9999,-9999.0,North,-9999.0,-,N/A,,Unknown,0,2013-03-27 18:15:00
1:35 PM,-9999,-9999,N/A,-9999,-9999.0,North,-9999.0,-,N/A,,Unknown,0,2013-03-27 18:35:00
1:55 PM,47.3,27.3,46,30.37,10.0,WSW,5.8,-,0.03,,Clear,250,2013-03-27 18:55:00
2:15 PM,48.0,27.1,44,30.36,10.0,NNE,5.8,-,N/A,,Clear,20,2013-03-27 19:15:00
2:35 PM,48.4,27.3,44,30.36,10.0,NNW,5.8,-,N/A,,Clear,340,2013-03-27 19:35:00
2:55 PM,48.9,27.0,43,30.35,10.0,North,9.2,-,N/A,,Clear,350,2013-03-27 19:55:00
3:15 PM,48.9,25.2,40,30.34,10.0,WNW,5.8,-,N/A,,Clear,290,2013-03-27 20:15:00
3:35 PM,48.9,23.9,38,30.34,10.0,NW,3.5,-,N/A,,Clear,310,2013-03-27 20:35:00
3:55 PM,50.0,28.2,43,30.33,10.0,NW,8.1,-,N/A,,Clear,320,2013-03-27 20:55:00
4:15 PM,50.2,28.4,43,30.33,10.0,WNW,6.9,17.3,N/A,,Clear,290,2013-03-27 21:15:00
4:35 PM,49.5,27.9,43,30.33,10.0,WSW,8.1,-,N/A,,Clear,250,2013-03-27 21:35:00
4:55 PM,50.0,27.3,41,30.33,10.0,WSW,4.6,-,N/A,,Clear,250,2013-03-27 21:55:00
5:15 PM,50.0,26.8,41,30.32,10.0,NNW,3.5,-,N/A,,Clear,330,2013-03-27 22:15:00
5:35 PM,49.6,28.4,44,30.32,10.0,NNW,6.9,-,N/A,,Clear,340,2013-03-27 22:35:00
5:55 PM,48.7,29.3,47,30.32,10.0,NNE,8.1,-,N/A,,Clear,20,2013-03-27 22:55:00
6:15 PM,48.2,30.2,50,30.32,10.0,North,8.1,-,N/A,,Clear,10,2013-03-27 23:15:00
6:35 PM,46.8,31.1,55,30.32,10.0,NNE,6.9,-,N/A,,Clear,20,2013-03-27 23:35:00
6:55 PM,43.9,31.3,61,30.32,10.0,NNE,5.8,-,N/A,,Clear,20,2013-03-27 23:55:00
7:15 PM,43.9,30.4,59,30.32,10.0,NE,4.6,-,N/A,,Clear,40,2013-03-28 00:15:00
7:35 PM,42.8,30.2,61,30.32,10.0,NNE,3.5,-,N/A,,Clear,30,2013-03-28 00:35:00
7:55 PM,42.8,29.3,59,30.33,10.0,Calm,Calm,-,N/A,,Clear,0,2013-03-28 00:55:00
8:15 PM,41.4,31.1,67,30.33,10.0,Calm,Calm,-,N/A,,Clear,0,2013-03-28 01:15:00
8:35 PM,40.1,31.8,72,30.33,10.0,Calm,Calm,-,N/A,,Clear,0,2013-03-28 01:35:00
8:55 PM,40.6,30.2,66,30.33,10.0,NE,4.6,-,N/A,,Clear,50,2013-03-28 01:55:00
9:15 PM,38.7,31.1,74,30.34,10.0,Calm,Calm,-,N/A,,Clear,0,2013-03-28 02:15:00
9:35 PM,39.6,29.8,68,30.34,10.0,Calm,Calm,-,N/A,,Clear,0,2013-03-28 02:35:00
9:55 PM,39.6,29.8,68,30.34,10.0,Calm,Calm,-,N/A,,Clear,0,2013-03-28 02:55:00
10:15 PM,38.5,31.3,75,30.34,10.0,Calm,Calm,-,N/A,,Clear,0,2013-03-28 03:15:00
10:35 PM,38.8,29.5,69,30.34,10.0,Calm,Calm,-,N/A,,Clear,0,2013-03-28 03:35:00
10:55 PM,36.5,31.8,83,30.34,10.0,Calm,Calm,-,N/A,,Clear,0,2013-03-28 03:55:00
11:15 PM,36.9,31.1,80,30.34,10.0,Calm,Calm,-,N/A,,Clear,0,2013-03-28 04:15:00
11:35 PM,36.7,30.4,78,30.34,10.0,Calm,Calm,-,N/A,,Clear,0,2013-03-28 04:35:00
11:55 PM,35.4,30.7,83,30.34,10.0,Calm,Calm,-,N/A,,Clear,0,2013-03-28 04:55:00